Wind_Speed
10 10 10 10 11 11 12 12 13 14 14 15 16 17 18 19 19 21 22 23 24 25 27 29 30 32 33 34 36 38 39 40 41 41 41 41 41 40 39 38 37 37 36 36 35 34 33 31 30 28 26 24 23 21 20 19 17 17 17 16 14 13 13 14 13 10 9 7 7 7 9 9 8 10 13 16 18 21 22 23 22 22 23 23 22 21 20 18
10 10 10 10 11 11 12 12 13 13 14 15 16 16 17 18 19 20 20 21 22 23 25 26 28 29 31 32 34 35 37 39 40 41 41 41 42 41 41 40 39 38 38 38 37 36 35 33 32 31 28 27 25 24 22 21 20 20 19 15 14 16 15 15 14 12 10 7 6 7 8 8 8 8 11 14 16 18 20 21 21 21 22 22 22 21 21 20
10 10 10 11 11 12 13 13 14 14 15 15 16 17 17 18 19 19 20 21 22 23 23 24 25 27 28 30 31 33 34 36 39 40 40 41 41 42 41 41 40 40 39 39 38 38 37 35 34 33 31 29 28 27 25 24 23 23 23 19 17 18 17 15 15 14 11 7 7 8 7 7 8 8 9 12 14 16 18 19 20 20 20 21 22 22 21 21
10 10 11 11 12 13 14 14 15 15 16 17 17 18 18 19 20 20 21 22 22 23 23 24 25 26 27 28 29 30 32 34 36 37 39 40 41 41 42 41 41 41 40 40 40 39 39 38 36 35 33 32 31 29 28 27 26 26 26 25 22 20 18 17 16 15 12 9 10 10 7 6 7 7 8 10 13 15 16 18 18 19 19 20 21 21 21 22
11 11 12 12 13 14 14 15 16 16 17 18 18 19 20 20 21 22 22 23 24 24 24 25 25 26 26 27 27 28 30 32 33 34 37 38 39 41 41 41 41 41 41 40 40 40 40 40 38 37 35 35 33 32 30 29 28 28 28 27 25 23 22 20 18 17 15 13 13 10 6 6 7 8 8 9 11 13 14 16 17 17 18 18 19 20 21 22
12 13 13 14 14 15 16 16 17 18 18 19 20 21 21 22 23 23 24 25 25 26 26 26 27 27 27 27 27 28 29 30 31 32 34 36 37 39 40 40 41 41 41 40 41 41 41 41 40 39 38 37 35 34 33 31 30 29 29 28 26 25 24 22 19 18 16 15 13 10 8 7 7 8 7 8 9 11 12 13 15 16 16 17 18 19 20 21
14 14 15 15 16 16 17 18 19 19 20 21 21 22 23 24 25 25 26 26 27 27 28 28 28 28 28 28 28 28 29 30 30 31 33 34 35 37 38 39 40 41 40 40 41 42 42 42 42 41 40 39 37 36 35 33 32 31 30 29 28 27 26 24 22 20 18 16 14 12 10 7 8 8 6 7 9 10 11 11 13 14 14 15 16 17 19 20
16 16 17 17 18 18 19 20 21 21 22 23 23 24 25 26 27 27 28 28 29 29 30 30 30 30 30 30 29 30 30 31 31 31 32 33 34 35 36 37 38 39 39 39 40 41 42 43 43 42 41 40 39 38 36 35 34 32 32 30 30 28 27 25 24 22 20 18 16 15 12 8 8 8 5 8 9 11 10 10 11 12 13 13 14 15 17 19
17 18 18 19 19 20 21 22 22 23 24 25 25 26 27 28 29 29 30 31 31 31 32 32 32 31 31 31 31 31 32 32 32 32 32 33 33 34 34 35 36 37 37 37 38 40 42 43 44 43 42 42 41 40 38 36 36 35 33 32 31 30 28 27 25 24 21 20 18 17 14 10 10 10 9 10 10 11 11 9 9 9 11 11 12 13 15 18
19 20 20 20 21 22 22 23 24 25 26 26 27 28 29 30 31 32 32 33 33 34 34 33 33 33 33 33 32 33 33 33 33 33 33 33 34 34 34 34 35 36 36 36 37 39 42 43 43 43 43 42 42 41 39 38 37 36 35 34 32 31 29 28 27 25 23 22 20 18 16 14 12 11 12 12 10 11 11 9 8 8 9 10 10 11 13 16
21 21 22 22 23 23 24 25 26 27 27 28 29 29 30 31 32 33 34 35 35 36 36 36 35 35 34 34 34 34 34 34 34 34 34 35 35 35 34 34 34 35 35 35 35 38 41 42 42 43 43 43 42 42 41 40 39 38 37 35 34 32 30 29 28 27 25 24 22 20 18 16 13 11 13 13 12 12 11 11 8 7 7 8 9 9 11 14
23 23 24 24 24 25 26 27 27 28 29 29 30 30 31 32 33 34 35 36 36 37 37 37 37 37 36 35 35 35 35 35 36 35 35 36 36 35 35 35 35 35 35 34 34 36 39 41 42 42 42 42 43 43 42 42 41 40 38 37 35 32 30 30 30 29 27 26 24 22 20 16 14 13 14 15 13 12 11 11 9 7 6 5 7 7 9 11
25 25 26 26 26 27 28 28 29 29 30 30 31 31 32 33 34 34 35 36 36 37 38 38 38 38 37 37 36 37 37 37 37 36 36 36 36 36 36 36 36 36 35 34 34 36 38 39 41 41 41 41 42 43 43 43 42 41 40 38 36 33 31 31 32 31 29 27 26 24 21 19 18 18 18 18 14 13 11 12 11 8 6 4 5 5 7 9
28 28 28 28 28 29 29 30 30 30 31 31 32 33 33 34 34 34 35 35 35 36 37 38 38 38 38 38 37 37 37 38 38 38 37 37 37 37 37 37 37 37 37 36 35 36 37 38 40 40 40 40 41 42 43 43 43 42 41 39 38 36 34 32 32 32 30 29 28 26 23 22 22 21 21 19 17 15 12 12 12 9 7 4 3 4 4 6
30 30 30 31 31 31 32 31 31 32 32 33 33 33 34 34 34 34 34 35 35 35 36 36 37 37 38 38 38 37 38 38 38 39 38 38 38 38 38 38 38 38 38 37 37 37 37 37 38 39 39 39 40 41 43 43 43 43 42 41 39 37 35 34 33 33 32 31 29 28 27 25 23 22 21 21 21 18 13 12 13 11 9 6 3 2 3 4
32 33 33 33 34 34 34 33 33 33 33 34 34 34 34 34 34 34 34 34 34 35 35 35 36 36 37 37 38 37 38 38 38 39 39 39 39 39 38 38 38 39 39 38 38 38 37 37 37 38 38 37 38 40 43 43 43 43 42 42 40 38 37 36 32 31 32 32 31 31 30 28 25 23 22 23 24 20 15 14 13 13 11 7 4 2 2 2
35 36 36 36 36 36 35 35 35 35 35 36 35 35 35 35 35 35 35 35 34 34 34 34 34 35 36 36 37 37 37 37 38 39 39 40 39 39 39 39 39 39 39 39 39 39 38 38 38 38 37 37 37 40 42 43 43 43 43 42 41 41 41 39 33 30 31 33 33 33 32 30 27 25 23 24 25 21 16 15 13 13 13 10 6 4 2 2
37 38 38 38 38 38 38 38 38 38 38 38 37 37 36 36 36 35 35 35 34 33 32 33 33 34 35 35 36 37 37 37 37 38 39 39 40 40 39 39 39 40 40 40 40 40 40 39 39 39 38 37 37 38 40 42 43 43 44 43 41 42 43 40 37 33 31 32 33 35 36 32 29 29 27 27 27 24 19 17 15 14 15 12 9 6 4 3
40 40 40 40 40 40 40 40 40 40 40 40 40 39 38 37 37 36 36 35 34 32 32 31 31 32 33 34 35 36 36 37 37 38 38 39 40 40 40 40 40 40 40 40 40 40 40 40 40 40 39 38 37 37 39 41 43 44 44 44 42 43 43 39 38 37 36 34 32 33 37 37 34 32 31 31 31 28 24 20 18 16 16 15 11 9 6 5
42 42 42 42 43 43 43 43 43 43 43 42 41 40 39 38 37 36 36 34 33 32 31 30 30 31 32 33 34 34 35 36 37 38 38 39 39 40 40 40 40 40 40 41 41 41 41 41 42 42 40 39 39 38 39 40 42 43 44 46 45 45 46 42 40 41 40 39 34 30 34 37 37 35 33 33 35 32 28 24 22 20 18 17 14 11 9 7
44 44 44 44 45 45 45 45 45 44 44 43 42 41 40 39 37 36 35 34 32 31 30 29 29 29 30 31 32 33 34 35 36 37 38 39 39 39 40 40 40 41 41 41 41 41 41 42 42 42 42 42 41 39 39 39 40 43 45 46 47 47 47 46 46 45 42 43 40 36 35 33 29 30 32 36 37 32 28 26 25 22 19 18 16 13 11 9
46 46 47 47 47 47 46 46 45 45 44 43 42 41 40 38 37 36 34 33 32 31 29 29 28 28 28 29 30 31 33 34 36 37 38 38 39 40 40 40 41 41 41 41 41 42 42 42 43 43 44 44 42 40 40 40 40 43 44 46 48 48 48 47 47 47 45 46 45 41 40 38 29 26 31 37 38 32 28 27 25 24 21 19 18 15 14 12
48 48 48 48 47 47 47 46 45 45 44 42 41 40 39 37 36 35 34 33 32 31 29 28 28 27 27 27 28 29 31 33 34 36 37 38 39 40 40 40 41 41 42 42 42 42 42 43 43 44 45 44 43 43 42 41 41 42 44 46 48 48 48 48 47 48 49 50 49 43 42 44 39 32 34 37 36 33 31 29 26 25 24 22 20 18 16 14
49 49 48 48 48 48 47 46 45 44 43 41 40 39 38 36 35 34 34 33 32 31 29 28 27 26 26 25 26 27 28 31 33 35 36 37 38 39 39 40 40 41 41 42 42 42 42 43 43 44 44 44 44 44 43 42 42 42 43 45 47 47 48 49 48 48 50 52 52 48 43 44 46 44 42 40 38 36 35 33 30 29 27 25 23 21 19 16
49 49 48 48 47 47 46 45 44 42 41 40 39 38 37 36 36 35 34 33 33 31 29 28 27 26 25 24 24 25 26 29 31 33 34 36 37 38 39 39 40 40 41 41 42 42 42 42 43 43 43 44 45 44 44 44 43 43 44 45 45 45 46 49 51 51 52 52 53 52 48 45 48 49 46 43 41 38 37 36 34 32 30 28 25 23 22 19
48 48 47 47 46 45 44 43 42 41 40 39 39 38 38 37 36 35 35 34 33 31 29 27 26 26 24 24 23 23 24 26 28 30 32 34 35 36 37 38 39 40 40 41 41 41 42 42 42 43 43 44 45 45 45 45 44 45 45 43 42 42 45 49 52 53 53 53 53 53 52 48 45 45 43 42 41 37 36 37 36 36 34 31 27 26 25 22
46 45 45 44 43 43 42 41 41 40 40 40 39 39 39 38 37 36 34 33 32 31 29 27 25 25 24 23 23 22 22 24 26 28 30 31 33 34 35 37 38 39 40 40 41 41 41 42 42 43 43 44 45 46 46 46 47 46 43 42 43 44 46 48 49 52 54 54 53 53 54 52 46 41 39 39 41 39 37 38 38 38 37 34 30 29 28 25
42 42 42 41 41 41 40 40 40 39 39 39 39 39 38 38 36 35 34 32 31 29 27 26 25 24 23 23 22 21 21 22 23 25 27 28 30 31 33 35 36 37 39 39 40 41 41 42 43 43 43 44 45 46 46 47 47 44 41 44 47 46 46 47 48 51 53 54 55 54 54 55 51 44 39 38 40 40 39 40 40 39 39 37 34 31 30 28
38 38 38 38 38 38 38 38 37 37 37 37 36 36 36 35 34 33 32 31 29 27 26 25 24 24 23 22 21 20 20 20 21 23 24 25 27 28 30 32 33 35 36 38 39 40 41 42 43 43 43 44 45 46 46 47 46 44 44 46 47 47 48 49 50 50 51 55 56 55 55 56 55 49 43 39 39 41 40 38 39 41 41 40 37 34 32 31
35 34 35 35 35 35 35 35 34 34 33 33 33 33 33 32 32 31 30 28 26 25 24 23 24 24 23 22 20 19 19 19 20 21 22 23 24 26 27 29 30 31 33 34 36 37 39 40 41 42 43 44 45 46 46 47 46 45 46 47 47 49 49 50 51 50 52 54 55 56 56 56 56 54 48 39 36 41 42 38 38 42 43 42 40 37 34 33
33 33 33 33 34 34 33 33 33 32 32 31 31 31 30 30 30 29 28 26 24 23 22 22 23 23 22 21 19 19 18 18 19 19 20 21 22 23 24 25 26 28 29 30 32 34 36 37 39 41 42 43 44 45 46 47 47 47 47 47 48 49 50 52 52 52 52 53 54 57 58 56 56 56 53 43 36 36 35 34 36 42 46 44 42 40 36 34
34 33 33 33 33 33 33 33 33 32 32 31 30 29 29 29 28 27 26 25 23 21 20 21 21 21 21 21 19 18 18 19 18 19 20 20 21 21 21 22 22 23 25 26 28 30 32 34 36 38 40 42 43 44 46 46 47 48 48 48 49 50 50 51 52 53 53 52 53 55 57 58 57 56 55 48 40 37 33 30 31 36 44 47 46 44 39 34
35 34 34 34 34 33 33 33 32 32 32 31 30 28 27 27 27 26 24 23 21 19 19 19 20 20 20 20 19 18 18 19 19 20 20 20 20 20 20 20 21 21 22 23 24 26 28 30 32 35 37 39 41 43 44 45 47 48 49 49 50 51 51 51 52 54 54 54 54 53 56 59 58 57 57 51 45 40 37 38 36 34 39 45 47 46 43 38
33 34 34 34 34 34 34 33 32 32 32 31 30 29 27 27 26 25 24 22 21 18 17 17 17 18 18 19 19 18 18 20 21 21 21 21 21 20 20 20 21 21 21 22 23 23 25 27 29 31 34 36 38 40 42 44 45 47 49 50 51 52 51 52 54 54 56 56 55 54 55 56 58 59 59 56 51 44 38 42 46 43 39 39 39 42 45 43
32 33 33 34 34 34 34 33 33 33 32 31 30 29 28 27 26 25 23 22 20 19 17 16 16 15 16 17 18 18 18 20 22 22 22 22 22 22 22 21 21 21 21 22 22 23 24 25 27 28 31 33 35 38 40 42 44 46 47 49 50 51 51 53 54 54 56 56 55 56 55 55 57 59 59 57 55 51 43 40 45 49 47 42 35 35 41 43
33 33 33 34 34 34 34 34 33 33 33 32 31 30 29 27 26 24 23 21 20 19 18 16 14 14 14 16 17 18 18 20 22 23 23 23 23 23 22 22 21 21 22 22 23 23 24 25 26 27 29 31 33 35 38 40 41 43 45 47 49 51 52 54 54 55 57 57 57 58 58 57 58 59 61 58 55 56 51 42 43 49 53 53 45 39 43 44
34 33 34 34 34 34 34 34 33 33 33 33 32 31 29 28 27 24 22 21 21 20 19 17 15 13 13 14 16 17 18 20 22 23 23 23 23 23 23 22 21 22 22 23 23 24 24 25 26 27 28 30 32 34 36 38 40 42 43 46 48 50 52 53 54 56 58 58 58 59 59 61 60 58 62 63 59 60 57 49 45 46 51 58 57 49 47 47
35 34 34 35 35 35 35 34 34 33 33 33 32 31 30 29 28 25 22 21 22 22 20 19 17 15 14 14 15 17 18 18 20 22 23 23 23 24 23 23 23 23 23 24 24 25 25 26 27 28 29 30 32 34 35 37 38 39 41 44 46 48 50 52 53 56 57 58 59 60 60 62 62 59 62 65 63 63 63 57 51 47 48 55 60 58 55 51
34 34 34 35 36 36 36 35 35 34 33 33 32 31 31 30 29 27 23 22 23 24 22 21 20 19 18 16 16 18 19 18 19 21 22 23 24 24 24 24 24 24 25 25 25 26 27 26 27 29 30 30 32 34 35 37 38 39 40 42 44 47 48 51 53 54 56 58 59 61 62 62 62 62 64 66 66 65 66 65 59 54 50 51 55 58 59 58
33 33 34 35 36 37 38 37 36 35 34 34 33 32 32 31 31 29 26 24 24 25 24 24 23 22 22 21 19 20 20 19 20 21 21 22 24 24 24 24 25 25 26 26 26 27 28 28 28 29 30 30 32 34 35 37 38 39 41 42 43 45 47 49 51 53 55 58 59 61 63 63 63 65 66 67 67 66 68 69 66 61 57 54 54 54 56 58
35 35 36 37 37 38 39 39 38 37 36 35 34 33 33 32 31 31 29 27 26 27 26 26 26 25 25 24 23 23 23 22 22 22 23 24 24 23 24 26 26 27 27 27 27 28 29 29 29 29 30 30 32 34 35 37 38 40 41 43 43 45 47 48 50 52 54 56 58 61 63 63 62 65 66 66 66 66 67 70 71 68 63 60 59 56 53 54
39 39 40 41 41 40 40 40 40 39 38 36 34 34 35 34 32 32 31 29 28 29 29 28 28 28 27 26 24 24 25 25 26 26 25 26 25 25 27 28 28 29 30 29 29 30 30 30 30 29 29 30 31 33 34 36 37 39 41 43 44 46 47 47 49 51 53 55 57 59 61 61 62 65 67 68 68 69 68 69 71 71 68 65 64 63 58 57
43 44 44 45 45 44 42 40 40 41 39 37 36 36 36 35 34 33 33 31 30 31 31 30 30 29 28 27 26 25 25 25 27 28 28 28 27 28 30 30 30 31 31 30 31 32 31 30 30 28 28 29 29 31 33 34 34 36 39 41 44 46 47 49 49 50 53 55 57 59 60 62 65 67 69 70 69 71 71 69 69 71 71 69 67 67 65 62
47 47 48 49 48 46 45 42 41 41 40 38 38 37 36 36 35 34 34 33 32 32 32 32 32 30 29 28 27 26 25 25 25 26 27 27 28 29 31 31 31 31 31 31 32 32 30 30 29 27 27 28 28 29 31 32 32 34 36 38 40 44 47 49 51 52 53 55 57 59 59 59 63 64 67 70 70 70 72 71 69 70 72 73 70 67 67 66
50 51 51 52 50 48 47 45 42 42 41 40 40 40 38 37 36 35 35 34 33 33 32 33 33 32 31 30 28 28 27 26 25 25 25 25 26 28 29 29 30 30 30 31 32 31 30 29 29 28 28 28 27 29 31 30 30 32 33 35 37 40 44 48 51 53 54 55 58 60 58 57 60 60 62 69 72 71 72 73 72 72 72 76 76 69 66 66
52 53 53 52 49 48 49 47 43 43 42 41 42 41 40 39 37 36 36 35 34 34 33 33 34 33 32 32 31 30 29 29 27 26 26 26 25 27 28 29 30 30 31 32 32 31 30 30 29 30 30 29 28 29 31 30 31 31 31 33 35 37 40 44 48 52 54 55 58 59 59 59 59 57 59 66 72 73 74 74 74 75 75 76 80 76 69 67
53 54 52 49 48 49 49 45 43 43 42 42 42 42 42 41 38 37 39 38 36 36 35 34 34 34 34 33 32 32 31 31 29 28 29 28 26 28 29 29 30 31 32 32 32 31 31 31 31 32 33 31 30 31 31 31 32 31 31 33 34 35 37 40 44 48 51 54 56 57 59 62 62 61 61 66 72 74 75 76 75 77 78 76 78 80 76 72
54 54 51 48 48 50 47 43 42 43 42 42 42 41 43 43 40 39 40 38 38 39 37 35 35 35 34 33 33 33 32 33 32 31 31 30 28 29 30 30 30 31 32 33 32 32 32 31 32 34 34 33 33 33 33 33 34 32 31 32 34 35 36 38 41 44 46 49 53 55 58 62 66 67 65 64 68 73 76 78 77 77 78 77 77 81 82 79
54 53 50 49 50 49 44 40 41 42 42 42 42 41 43 44 42 41 40 38 38 39 38 37 37 36 34 33 33 33 33 33 34 32 32 32 30 29 30 29 29 30 32 32 32 32 32 32 33 35 35 34 35 35 35 35 36 35 33 32 34 35 36 36 38 40 42 45 48 52 56 60 65 70 69 65 65 68 73 77 79 78 78 77 78 81 84 83
53 52 51 51 51 46 40 38 40 41 42 42 42 42 44 44 43 43 42 40 40 39 37 38 39 37 36 34 33 34 33 32 33 32 32 33 31 29 28 28 28 29 31 30 30 30 30 31 33 34 34 35 36 36 37 37 37 37 36 33 34 35 35 35 36 37 39 41 43 46 51 55 61 68 73 72 67 64 68 74 77 79 79 78 79 80 81 83
52 52 51 51 50 43 37 36 38 40 41 42 42 43 43 44 45 44 43 43 42 39 37 38 38 37 37 35 34 35 34 32 32 32 32 32 31 29 29 27 27 29 29 28 29 29 28 29 31 32 33 34 36 37 37 38 38 39 38 35 34 35 35 34 34 35 37 37 39 42 46 51 57 63 70 74 71 64 64 72 75 77 79 79 79 79 76 76
52 52 51 50 47 41 35 34 36 39 40 42 42 42 43 44 45 44 44 45 44 40 38 38 37 37 37 36 36 36 34 33 33 32 31 31 31 30 29 28 28 29 29 28 28 28 28 28 28 29 31 32 34 36 37 38 39 40 40 37 34 34 35 35 34 35 35 36 38 41 44 49 55 59 63 70 71 65 63 69 74 76 78 78 79 79 76 72
Wind_Direction
212 218 223 227 231 234 236 238 240 241 243 244 245 245 245 246 246 246 246 247 247 247 247 246 245 244 243 242 241 241 240 240 240 240 241 241 240 239 239 238 238 238 238 238 237 237 235 234 233 232 230 228 226 223 217 212 207 204 211 218 223 227 231 238 246 251 256 276 290 299 313 322 348 7 11 14 17 16 18 19 22 29 31 30 29 27 31 33
212 217 222 227 231 235 238 240 242 243 244 245 246 247 247 248 247 247 248 248 248 249 249 248 248 247 246 244 244 243 242 242 241 240 240 241 241 240 240 239 238 238 238 238 238 238 237 235 234 232 230 228 226 223 218 213 209 205 209 214 222 226 226 238 244 241 249 263 273 294 305 308 332 358 7 10 15 15 16 18 19 25 30 30 30 27 27 29
217 222 226 231 234 237 240 242 244 245 246 247 248 249 249 250 250 250 250 250 249 249 250 250 250 249 249 247 246 245 244 244 243 242 241 241 241 241 240 239 238 238 238 238 238 238 238 237 235 233 231 229 227 224 220 215 211 208 209 208 213 218 217 232 245 246 249 256 274 292 299 304 325 346 357 3 12 13 13 17 17 21 28 30 30 28 25 27
227 231 235 238 241 243 245 246 247 249 250 251 251 252 252 252 252 252 252 252 251 251 250 250 250 250 250 250 249 247 246 245 244 244 242 241 240 240 240 240 239 238 238 238 238 238 238 237 236 234 232 230 228 225 222 217 214 211 213 214 216 218 217 226 236 242 246 249 268 282 294 303 319 334 342 353 6 11 9 14 17 17 23 29 30 29 26 25
238 241 244 247 250 252 253 254 255 256 256 257 257 257 257 256 255 254 253 253 252 252 251 251 250 250 250 250 251 250 249 248 246 245 244 243 241 240 240 240 239 238 238 238 238 238 238 237 237 235 233 232 230 228 224 220 217 214 216 217 220 221 222 226 227 232 234 234 251 268 283 295 311 322 329 340 355 6 6 10 15 15 19 26 29 29 27 26
247 250 253 255 258 260 262 262 263 263 264 264 264 264 263 262 261 259 257 256 254 253 252 251 251 250 249 249 250 250 250 249 248 247 246 244 243 241 240 239 239 238 238 238 238 237 237 237 236 235 234 233 231 229 227 224 220 218 217 218 219 221 224 228 228 230 231 231 241 252 265 283 301 305 313 324 338 357 1 4 11 12 15 22 27 29 28 27
254 256 258 260 263 265 267 268 269 270 270 270 270 269 269 268 266 265 263 261 259 256 254 252 251 250 250 249 249 249 249 249 248 248 248 246 244 243 241 240 239 239 238 237 238 237 237 236 236 235 234 234 232 231 229 227 224 221 220 219 219 220 223 225 227 229 229 230 233 238 252 271 281 286 303 307 320 343 349 356 5 10 13 18 24 28 29 29
259 260 262 264 265 268 270 271 273 273 273 273 273 273 273 272 270 269 267 265 263 261 258 255 252 251 249 249 248 248 248 248 248 248 248 248 246 244 243 241 240 239 238 237 237 237 237 236 235 235 234 234 233 232 231 229 226 224 222 220 219 219 221 222 223 226 227 227 228 233 243 250 256 270 296 291 302 321 329 343 354 5 11 14 21 25 29 30
264 265 267 268 270 271 273 274 275 275 275 275 276 275 275 274 273 272 270 268 266 264 261 259 255 253 250 249 248 247 247 247 247 247 247 248 247 246 244 242 240 239 238 236 236 237 237 236 236 235 234 234 234 233 231 230 228 227 224 222 221 220 219 221 222 222 224 225 225 230 236 234 233 250 272 268 279 300 308 327 341 358 9 11 17 23 28 31
269 270 271 273 274 275 276 276 276 277 277 277 277 277 276 276 275 274 272 270 268 266 264 261 258 255 253 250 248 247 246 245 245 245 246 246 246 246 245 243 242 239 237 236 235 236 236 236 236 235 234 234 233 233 232 230 229 228 226 224 223 221 220 220 221 222 222 223 224 227 231 230 228 245 264 260 266 284 292 308 325 345 2 10 12 19 27 30
272 273 275 276 277 278 279 279 279 279 279 278 279 278 278 277 276 275 273 272 270 268 266 263 260 257 255 252 250 248 247 245 244 244 244 245 245 245 245 244 243 241 238 236 235 236 237 236 236 235 234 234 233 232 231 230 229 228 227 226 224 223 221 221 221 222 221 221 225 227 228 227 223 237 253 254 261 267 277 294 308 328 348 8 9 13 25 29
275 276 278 279 281 281 282 281 281 280 280 280 280 280 279 278 277 276 274 272 271 269 267 264 261 259 256 254 252 250 248 246 245 243 243 243 243 243 244 244 243 242 240 237 236 236 237 236 235 234 233 233 233 232 231 230 229 228 227 226 225 223 223 223 221 221 221 221 224 228 228 225 219 229 239 241 249 247 259 284 291 308 328 358 7 6 21 29
279 280 281 283 284 285 284 284 283 283 283 283 283 283 282 281 280 278 276 273 271 270 268 266 263 260 257 255 253 251 249 248 245 244 243 243 243 242 242 242 242 242 240 238 237 236 236 236 235 234 232 232 232 232 231 229 228 227 226 226 224 222 221 223 222 220 221 221 223 226 228 228 223 227 232 231 233 234 248 276 280 288 302 331 3 358 13 28
283 284 286 287 288 288 287 286 285 285 285 286 286 286 285 284 283 280 278 275 273 271 269 267 264 262 259 256 253 252 250 248 246 245 243 242 242 242 241 241 241 241 240 239 237 237 236 236 235 233 231 230 231 232 231 230 229 227 225 225 224 222 220 222 223 220 220 220 221 223 224 225 226 230 233 229 227 228 242 265 270 275 280 291 344 349 360 26
287 288 290 291 291 291 290 289 288 288 289 289 290 289 289 287 286 283 280 277 274 272 270 268 266 263 260 257 254 252 250 249 247 245 243 242 242 241 241 240 240 240 240 239 238 238 237 237 236 233 230 228 229 230 230 230 229 227 225 223 222 222 221 222 223 221 220 220 222 224 224 222 224 230 230 226 224 223 232 252 260 267 268 267 292 330 337 14
289 291 292 293 293 293 293 292 292 293 293 293 293 293 292 291 289 286 283 280 277 274 272 270 267 264 261 258 255 252 250 248 247 245 244 242 241 241 241 240 240 240 240 239 238 238 238 237 237 235 232 228 226 228 229 229 228 227 225 223 221 219 219 218 219 220 220 220 222 224 227 223 221 226 223 219 222 220 225 241 250 260 263 259 256 276 305 336
291 292 293 294 295 296 296 296 296 297 297 297 297 297 296 295 292 290 286 283 280 277 274 271 268 266 262 259 256 253 250 248 246 245 244 242 241 241 240 240 239 239 239 238 238 238 237 237 237 236 233 228 225 225 227 228 228 227 225 223 220 217 218 215 213 215 216 219 222 222 226 224 219 222 217 217 223 219 224 236 239 252 259 257 249 246 259 269
291 292 294 296 297 298 298 299 300 300 300 300 300 300 299 297 295 293 290 286 284 281 277 274 270 267 263 260 256 253 250 248 246 244 243 242 241 241 240 240 239 238 238 238 237 237 237 237 236 236 235 231 226 223 224 226 226 225 223 220 218 217 217 214 213 213 209 216 223 220 223 224 218 218 216 220 225 221 226 235 232 243 255 253 246 241 239 241
291 293 294 296 298 299 300 301 301 302 302 302 302 301 300 298 297 294 292 290 287 284 281 277 273 269 264 260 257 253 250 248 246 244 242 241 240 240 240 239 239 238 238 238 237 237 236 236 236 236 235 233 230 225 222 224 224 224 222 219 217 217 214 209 210 211 207 211 219 221 222 223 219 218 220 225 228 226 231 235 227 232 246 249 243 238 237 233
291 293 295 296 298 299 300 300 301 302 302 302 302 301 300 299 297 295 293 291 290 287 284 281 276 272 266 261 257 253 250 247 245 243 241 240 239 239 239 239 239 238 238 237 237 236 236 235 235 236 235 234 232 227 223 222 223 224 223 219 217 216 214 208 205 208 208 207 212 217 220 222 222 223 225 229 231 229 229 228 222 222 235 244 244 238 237 233
291 293 295 296 297 298 298 299 300 301 301 301 301 300 299 298 297 296 294 293 291 288 286 283 279 275 269 264 259 254 250 247 244 242 240 239 238 237 237 238 238 238 237 237 236 236 235 234 235 235 235 234 232 229 225 223 222 223 223 221 218 216 215 212 206 206 207 206 208 212 212 212 212 215 220 226 229 226 221 222 220 219 225 239 245 239 238 237
291 292 294 295 296 297 297 298 299 300 300 300 299 299 298 297 296 295 294 293 291 290 287 284 281 277 272 266 260 255 250 246 243 241 239 238 237 236 236 236 237 237 237 236 236 235 234 234 234 233 234 234 233 230 228 224 222 222 222 221 219 216 214 214 211 209 208 208 210 212 212 208 200 198 208 219 225 220 215 220 222 220 222 233 243 241 239 239
290 292 293 294 295 296 297 297 298 298 298 298 298 297 296 296 295 295 294 293 292 291 289 287 283 278 274 268 262 257 251 247 243 240 238 237 236 236 235 235 235 236 236 236 236 235 234 234 234 233 234 234 233 232 229 227 224 223 222 221 220 217 214 214 213 211 210 212 212 212 213 212 209 206 208 215 220 217 217 222 225 225 223 227 237 239 236 238
289 291 292 293 294 295 296 296 297 297 296 296 296 295 295 294 294 293 293 293 292 291 290 288 285 281 275 270 264 257 252 247 243 240 237 236 235 235 235 235 235 235 235 236 236 235 235 234 234 234 234 234 234 233 231 229 226 224 224 223 221 218 215 214 213 210 211 214 213 211 212 212 213 215 217 220 223 225 227 228 228 229 226 225 232 236 235 232
289 290 292 293 294 294 295 295 295 295 295 295 295 294 294 293 293 292 292 292 292 291 290 289 287 282 277 271 265 259 253 247 242 239 237 235 235 234 234 234 234 235 235 235 235 235 235 235 234 234 234 234 234 233 232 230 228 226 225 224 221 219 218 215 214 212 212 214 214 213 212 213 215 218 221 225 227 230 233 232 229 229 229 226 226 233 235 231
289 290 291 292 293 293 294 294 294 295 295 294 294 293 293 292 292 292 291 291 291 290 289 288 286 283 279 274 267 261 253 247 241 238 236 235 235 234 234 234 234 234 234 234 234 235 235 235 234 234 233 234 234 233 233 231 229 227 225 225 222 221 221 218 216 215 213 213 215 215 214 215 217 220 222 225 227 230 233 234 230 228 230 227 224 230 233 230
289 290 291 292 293 293 294 294 294 294 294 294 293 293 293 292 292 291 290 290 289 289 288 287 284 281 278 274 269 263 254 246 240 236 234 234 234 234 234 234 234 234 234 234 234 234 234 234 234 234 233 234 233 233 232 231 230 228 225 225 224 222 222 220 217 217 215 214 214 215 214 213 214 215 218 220 224 226 228 231 231 228 230 229 224 226 231 229
291 291 292 293 294 294 294 294 295 295 294 294 294 293 293 292 291 290 289 288 287 287 286 284 282 280 278 274 270 264 254 245 238 235 233 233 233 233 234 234 234 234 234 234 234 234 234 234 234 234 234 234 234 234 233 232 231 228 226 226 225 222 222 222 220 218 217 215 213 213 213 212 211 211 213 214 217 222 225 229 231 228 230 231 226 225 228 230
293 293 294 294 295 295 295 296 296 296 295 295 295 294 294 293 292 290 288 287 285 284 283 282 281 281 278 274 270 263 253 244 236 233 231 231 231 231 232 233 233 234 234 234 234 234 234 234 234 234 234 234 234 234 234 233 232 229 227 227 225 223 222 222 221 219 217 216 214 213 213 213 210 209 212 214 215 219 222 226 230 229 228 230 230 227 227 230
294 294 295 295 295 296 296 296 297 297 297 297 297 297 297 295 293 291 288 285 284 282 281 280 281 281 277 273 268 260 250 241 234 230 229 229 229 229 230 231 232 232 233 233 234 234 234 234 235 235 235 235 234 235 234 234 232 229 227 227 226 225 223 223 223 220 218 217 215 213 212 212 209 208 210 211 212 215 218 225 229 228 228 228 230 229 227 228
294 294 294 294 295 295 295 295 296 296 297 298 299 299 299 297 295 291 288 284 281 280 279 279 280 278 275 270 264 256 246 237 230 226 225 225 225 226 227 228 230 230 231 232 233 233 234 234 235 235 235 235 235 235 235 234 233 231 229 227 227 227 225 224 223 222 220 218 216 214 212 210 209 209 209 209 209 209 215 227 232 229 227 226 227 227 225 226
292 293 293 293 293 294 294 294 294 294 294 295 297 299 300 299 296 291 287 283 279 276 277 279 280 276 272 267 261 252 242 233 226 222 220 219 220 221 223 225 227 228 230 231 232 232 233 233 234 234 235 235 236 235 235 235 234 233 230 228 228 227 227 225 225 224 222 220 218 216 214 211 209 208 207 209 209 206 212 225 233 233 227 224 226 227 223 223
292 292 291 291 291 292 292 292 292 292 292 291 293 295 299 300 297 292 286 281 276 272 274 279 280 274 269 265 259 250 240 230 224 220 217 215 215 216 218 221 223 225 227 229 231 231 232 233 233 234 234 234 235 235 235 235 234 234 232 230 229 228 227 226 226 225 223 221 219 218 216 213 211 209 207 206 204 204 213 220 224 228 226 223 226 226 220 217
293 293 292 291 290 290 290 290 290 290 291 290 289 290 294 298 297 292 285 279 272 268 272 278 279 274 268 263 258 250 240 231 223 219 216 214 213 214 215 218 220 223 225 227 229 231 232 233 233 234 235 234 234 234 234 234 234 234 233 232 230 229 227 226 226 225 225 223 220 218 217 214 212 210 208 206 203 202 210 218 220 222 221 219 222 223 219 216
295 295 294 293 292 290 289 288 289 289 289 290 289 288 289 293 295 292 285 277 268 264 269 276 278 274 267 263 259 252 242 233 224 218 215 213 212 213 214 216 220 223 225 227 229 230 232 234 234 235 236 236 235 234 233 233 233 233 234 233 232 231 229 228 227 226 226 224 222 220 219 216 214 212 208 207 207 206 207 213 217 219 219 216 216 216 211 211
294 294 294 294 293 292 289 288 287 287 288 288 288 288 286 287 290 291 284 274 264 260 264 270 275 274 267 262 259 255 246 237 229 221 216 213 213 213 214 217 222 226 228 230 230 230 232 235 236 236 238 239 239 237 234 233 232 232 232 233 233 232 231 229 227 226 226 225 223 221 219 216 215 213 208 207 209 208 207 210 213 217 219 216 213 212 207 211
293 292 292 292 292 292 291 289 287 286 286 286 286 287 286 283 283 285 282 271 261 259 261 264 267 270 267 262 259 256 249 241 235 228 221 216 215 215 216 219 224 230 233 234 236 234 233 236 238 237 238 240 241 241 239 235 233 231 231 232 232 232 232 231 228 227 226 225 224 222 220 218 217 215 210 208 210 210 208 209 209 213 221 219 216 217 217 221
291 291 290 290 289 289 289 289 288 285 284 283 284 285 285 282 279 279 277 268 260 258 259 260 261 263 264 263 260 256 251 245 240 235 227 221 219 219 220 222 227 232 236 238 240 240 237 239 241 239 239 240 240 241 242 240 237 233 231 231 231 231 232 232 230 229 227 226 225 223 222 220 218 217 214 210 211 211 208 208 207 206 216 220 218 219 222 225
290 290 290 289 288 288 287 287 286 285 283 281 281 283 282 281 278 274 271 265 260 258 259 259 261 261 261 261 258 257 255 249 243 239 234 227 224 223 224 227 230 234 239 242 244 246 243 243 245 244 242 242 242 242 242 242 241 238 234 231 231 231 231 231 231 230 229 227 225 223 223 221 218 218 217 214 213 213 210 209 207 205 210 216 217 217 220 223
292 293 292 290 289 288 286 285 283 283 282 280 279 279 279 279 277 274 269 263 260 259 260 260 262 264 264 261 256 254 254 250 246 243 239 235 232 230 230 233 235 238 243 246 249 251 249 247 249 250 247 246 246 245 243 242 241 241 239 235 233 231 230 230 231 231 230 227 226 224 222 221 219 219 219 217 215 214 213 211 210 207 207 212 215 215 217 220
297 298 295 293 292 290 286 284 282 280 279 278 277 276 275 275 275 274 268 262 260 260 261 263 265 266 266 264 258 252 250 248 246 244 241 239 239 239 237 239 241 243 246 248 252 254 254 253 252 253 253 250 249 248 246 244 241 240 240 239 237 235 231 229 229 230 230 229 227 226 223 221 220 220 221 220 218 215 214 214 213 210 208 210 214 214 214 216
300 300 297 296 295 291 287 283 280 278 276 276 276 274 272 272 272 272 269 265 261 260 261 263 265 266 266 265 261 255 250 247 245 244 243 242 242 243 243 243 244 247 249 250 253 255 256 257 256 255 255 253 251 250 249 247 244 240 239 238 238 238 235 231 229 227 229 230 229 227 225 222 221 221 221 221 220 217 215 216 215 212 208 208 211 214 214 214
300 299 298 297 295 292 288 283 278 276 273 272 273 272 271 270 269 269 268 266 262 260 260 262 263 265 265 265 262 259 254 250 247 246 245 245 244 245 246 246 247 250 252 252 254 255 256 258 258 256 256 255 253 252 251 250 248 244 241 238 237 238 237 235 232 228 226 228 229 229 226 223 222 221 221 221 220 219 217 217 217 215 211 208 209 213 215 217
299 298 297 296 294 291 289 283 277 274 272 270 270 270 270 269 268 267 267 265 262 261 260 261 262 263 264 264 263 261 258 255 252 250 248 247 247 248 249 250 250 251 253 253 254 255 256 257 258 257 258 256 254 254 252 251 251 249 245 242 238 237 237 236 234 231 228 225 227 229 228 225 224 223 222 222 222 221 218 218 218 217 214 211 210 211 214 218
297 296 295 294 291 289 287 283 276 272 270 268 267 267 267 267 266 265 265 265 263 262 261 260 261 261 262 262 263 262 261 259 256 255 253 251 250 251 252 253 253 253 254 255 256 256 257 258 259 259 259 257 255 256 255 253 253 252 249 245 242 238 237 236 234 233 231 227 225 226 227 226 226 226 225 224 224 223 220 219 220 218 215 213 212 211 212 215
296 295 294 292 289 287 286 281 273 268 267 265 264 264 265 265 264 262 262 262 263 263 263 262 262 262 261 262 262 262 262 261 258 257 257 254 253 255 256 256 257 257 257 258 259 260 260 260 260 260 260 257 254 255 256 256 254 254 252 247 243 240 239 238 236 234 232 230 227 225 225 224 224 226 228 227 226 224 221 220 219 218 217 214 213 214 213 213
296 295 294 292 290 290 287 278 269 264 263 262 261 262 263 263 263 261 260 260 260 261 261 263 264 263 262 262 262 261 261 262 260 259 259 258 257 258 259 258 259 261 262 262 263 263 262 261 261 261 260 258 256 255 255 256 255 254 253 248 243 241 240 240 239 237 234 232 229 226 224 222 220 221 225 227 227 224 221 220 219 218 218 215 213 216 217 215
297 297 295 294 294 293 286 273 262 259 259 259 259 260 260 261 262 261 260 260 260 259 259 261 262 263 262 262 262 261 260 261 260 259 260 261 260 259 260 261 261 263 264 265 265 265 265 264 263 262 260 258 257 255 254 255 255 254 253 249 243 240 240 241 241 241 238 235 232 228 225 222 220 220 222 226 227 224 220 220 220 219 219 216 214 216 219 218
299 298 297 297 298 295 284 268 257 253 254 256 256 257 258 259 260 261 261 261 260 260 260 260 260 261 261 261 261 260 259 259 260 260 261 262 261 259 259 260 260 262 264 265 266 267 266 266 264 263 261 259 257 255 253 253 254 254 252 250 244 239 239 242 243 243 243 241 237 233 229 225 222 221 222 225 228 226 221 220 221 221 220 218 216 217 219 221
300 298 297 299 299 294 280 264 254 250 250 252 252 253 255 257 258 260 261 261 261 261 261 260 259 259 259 259 259 259 258 259 261 261 261 261 261 258 257 258 260 261 263 264 266 267 267 267 266 266 265 262 259 256 254 252 253 253 252 250 247 241 238 241 243 244 244 244 242 238 233 229 227 224 222 223 229 229 224 221 221 220 220 220 218 218 220 222
300 298 297 300 300 292 276 263 254 249 249 249 249 249 251 254 256 258 260 260 260 260 261 261 261 259 258 258 257 257 258 259 261 261 260 260 259 257 257 258 259 260 261 262 264 268 269 269 270 270 268 265 262 259 256 253 252 252 251 250 248 244 240 241 244 245 245 244 244 241 236 231 229 227 224 222 225 229 226 223 221 220 219 219 219 219 220 222
299 297 298 300 298 288 275 263 255 250 249 248 248 247 248 250 253 255 256 257 258 259 260 262 261 259 258 256 255 257 258 258 259 260 260 258 256 256 257 259 259 259 259 261 264 268 271 272 273 273 271 269 266 262 258 254 251 251 250 249 249 246 242 242 244 247 247 246 245 241 237 233 230 227 225 222 221 224 227 225 223 222 220 218 218 220 221 221
Height
10949 10949 10950 10950 10950 10950 10951 10951 10951 10952 10952 10952 10953 10953 10953 10953 10953 10954 10954 10954 10954 10955 10955 10956 10956 10957 10958 10959 10960 10961 10962 10963 10965 10966 10967 10969 10971 10973 10975 10977 10979 10980 10981 10983 10984 10987 10989 10991 10994 10996 10999 11001 11003 11005 11007 11008 11009 11010 11010 11009 11009 11010 11009 11008 11008 11009 11009 11009 11010 11009 11008 11008 11008 11007 11005 11004 11002 11000 10998 10995 10993 10990 10987 10985 10983 10981 10977 10975
10949 10949 10949 10949 10950 10950 10950 10950 10950 10951 10951 10951 10951 10951 10951 10952 10952 10952 10952 10952 10952 10953 10953 10953 10954 10954 10955 10956 10957 10958 10959 10960 10961 10962 10964 10966 10968 10970 10972 10974 10976 10977 10978 10980 10982 10984 10986 10988 10991 10993 10996 10999 11001 11003 11005 11007 11008 11009 11008 11010 11010 11010 11009 11007 11007 11008 11009 11010 11009 11009 11009 11008 11008 11007 11006 11004 11002 11001 10999 10997 10995 10992 10989 10987 10984 10982 10979 10977
10948 10948 10949 10949 10949 10949 10949 10949 10949 10949 10949 10949 10949 10949 10950 10950 10950 10950 10950 10950 10951 10951 10951 10951 10951 10952 10952 10953 10954 10954 10955 10956 10957 10959 10961 10962 10964 10966 10968 10970 10972 10974 10975 10977 10979 10980 10982 10985 10987 10990 10993 10996 10998 11000 11002 11004 11006 11007 11007 11008 11009 11008 11009 11007 11005 11006 11008 11009 11009 11009 11009 11008 11008 11007 11006 11005 11003 11002 11000 10998 10996 10994 10991 10988 10986 10983 10981 10979
10947 10947 10948 10948 10948 10948 10948 10948 10948 10948 10948 10948 10948 10948 10948 10948 10948 10948 10948 10948 10948 10948 10949 10949 10949 10949 10949 10950 10951 10952 10952 10952 10953 10955 10957 10958 10960 10962 10964 10966 10968 10970 10971 10973 10975 10977 10979 10981 10984 10987 10990 10992 10994 10997 10999 11002 11003 11004 11005 11005 11006 11007 11008 11007 11006 11006 11008 11009 11009 11009 11009 11008 11008 11007 11006 11005 11003 11002 11001 11000 10998 10995 10992 10990 10987 10985 10983 10980
10946 10946 10946 10947 10946 10946 10947 10947 10947 10947 10946 10946 10946 10946 10946 10946 10946 10946 10946 10946 10946 10946 10946 10946 10946 10947 10947 10948 10948 10949 10949 10949 10950 10951 10952 10954 10956 10957 10959 10962 10964 10966 10968 10969 10971 10973 10975 10977 10980 10983 10986 10989 10991 10994 10996 10998 11000 11002 11003 11004 11005 11006 11006 11006 11006 11007 11008 11009 11009 11009 11009 11008 11007 11006 11005 11004 11003 11002 11002 11001 10999 10997 10994 10992 10989 10987 10985 10982
10945 10945 10945 10945 10945 10945 10945 10945 10945 10945 10945 10944 10944 10944 10944 10944 10943 10943 10943 10943 10943 10943 10943 10944 10944 10944 10945 10945 10946 10946 10946 10946 10947 10948 10948 10950 10952 10953 10955 10957 10959 10962 10964 10966 10967 10969 10971 10973 10976 10979 10982 10985 10988 10990 10993 10995 10997 10999 11001 11002 11003 11004 11005 11005 11006 11006 11007 11008 11009 11010 11009 11008 11007 11006 11005 11004 11003 11002 11002 11001 11000 10998 10996 10994 10991 10989 10986 10984
10944 10944 10944 10944 10944 10943 10943 10943 10943 10943 10943 10942 10942 10942 10941 10941 10941 10940 10940 10940 10940 10940 10940 10940 10941 10941 10942 10942 10943 10943 10943 10943 10944 10945 10945 10946 10948 10949 10951 10953 10955 10958 10960 10962 10963 10964 10966 10968 10971 10975 10978 10981 10984 10987 10989 10992 10995 10997 10998 11000 11001 11002 11003 11004 11005 11006 11006 11007 11008 11008 11008 11008 11007 11006 11005 11003 11002 11002 11002 11002 11001 11000 10998 10996 10993 10990 10988 10986
10942 10942 10942 10942 10942 10942 10942 10941 10941 10941 10940 10940 10940 10939 10939 10938 10938 10937 10937 10937 10936 10936 10936 10937 10937 10938 10939 10939 10940 10940 10940 10940 10941 10942 10942 10943 10944 10946 10947 10949 10951 10953 10956 10958 10959 10960 10962 10964 10967 10971 10974 10977 10980 10983 10986 10989 10992 10994 10996 10997 10999 11001 11002 11003 11004 11005 11005 11006 11006 11006 11006 11007 11006 11006 11005 11003 11002 11002 11003 11003 11002 11001 10999 10997 10995 10992 10990 10987
10941 10941 10940 10940 10940 10940 10940 10939 10939 10938 10938 10937 10937 10937 10936 10935 10935 10934 10934 10933 10933 10933 10933 10933 10933 10934 10935 10936 10936 10937 10937 10937 10938 10939 10939 10940 10941 10942 10943 10945 10947 10949 10951 10953 10954 10955 10957 10960 10963 10967 10971 10973 10976 10979 10983 10986 10988 10990 10993 10995 10997 10999 11000 11001 11002 11003 11004 11005 11004 11004 11005 11006 11005 11005 11005 11004 11003 11003 11003 11003 11003 11002 11000 10999 10997 10994 10991 10989
10939 10939 10939 10938 10938 10938 10937 10937 10936 10936 10935 10935 10934 10933 10933 10932 10931 10931 10930 10930 10929 10929 10929 10929 10929 10930 10931 10932 10933 10933 10933 10934 10935 10935 10936 10936 10937 10938 10940 10941 10943 10945 10947 10949 10950 10951 10952 10955 10959 10963 10966 10969 10972 10975 10979 10982 10984 10987 10990 10992 10995 10997 10999 11000 11001 11002 11003 11003 11003 11003 11004 11004 11005 11004 11004 11004 11004 11004 11004 11003 11003 11002 11001 11000 10998 10996 10993 10991
10937 10937 10936 10936 10936 10935 10935 10934 10933 10933 10932 10931 10931 10930 10929 10928 10927 10927 10926 10925 10925 10925 10924 10925 10925 10926 10926 10927 10928 10929 10929 10930 10931 10931 10932 10933 10934 10935 10936 10937 10939 10941 10943 10945 10946 10946 10948 10952 10955 10959 10962 10965 10968 10971 10975 10977 10980 10983 10986 10989 10992 10995 10998 10999 11000 11001 11002 11002 11002 11002 11003 11003 11004 11004 11003 11004 11004 11004 11004 11003 11003 11003 11002 11000 10999 10997 10995 10993
10934 10934 10934 10934 10933 10933 10932 10931 10930 10930 10929 10928 10927 10926 10925 10924 10923 10922 10922 10921 10921 10920 10920 10920 10920 10921 10922 10923 10924 10924 10925 10926 10927 10928 10928 10929 10930 10931 10932 10934 10935 10937 10938 10940 10942 10943 10944 10948 10951 10954 10958 10961 10963 10966 10970 10973 10976 10980 10983 10986 10989 10993 10997 10998 10999 11000 11001 11001 11001 11001 11001 11002 11003 11003 11002 11002 11004 11004 11004 11004 11003 11003 11003 11001 11000 10999 10996 10994
10932 10932 10931 10931 10930 10930 10929 10928 10927 10926 10926 10925 10924 10923 10921 10920 10919 10918 10917 10917 10916 10915 10915 10915 10916 10916 10917 10918 10919 10919 10920 10921 10922 10923 10924 10925 10926 10927 10929 10930 10931 10932 10934 10936 10938 10939 10941 10943 10946 10950 10954 10956 10959 10962 10965 10968 10972 10976 10979 10983 10986 10991 10994 10994 10996 10998 10999 11000 11000 11000 11001 11002 11002 11001 11000 11001 11003 11003 11004 11004 11003 11003 11003 11002 11000 10999 10998 10996
10929 10929 10928 10928 10927 10926 10925 10924 10924 10923 10922 10921 10920 10918 10917 10916 10915 10914 10913 10912 10911 10911 10910 10910 10911 10911 10912 10913 10914 10915 10915 10916 10917 10919 10920 10921 10922 10923 10925 10926 10927 10928 10930 10932 10934 10935 10937 10939 10942 10946 10949 10952 10955 10957 10961 10964 10967 10971 10975 10979 10983 10986 10989 10992 10994 10996 10997 10998 10999 10999 11000 11001 11001 11000 10999 11001 11002 11003 11003 11004 11003 11003 11003 11003 11001 11000 10999 10997
10926 10926 10925 10925 10924 10922 10921 10921 10920 10919 10918 10917 10915 10914 10913 10911 10910 10909 10908 10907 10907 10906 10906 10906 10906 10906 10907 10908 10908 10910 10911 10911 10912 10914 10915 10916 10918 10919 10920 10922 10923 10924 10926 10928 10930 10931 10933 10936 10938 10941 10945 10948 10951 10953 10956 10959 10963 10967 10971 10975 10979 10983 10987 10990 10993 10994 10995 10996 10997 10998 10998 10999 10999 10999 10999 11000 11001 11002 11003 11004 11003 11003 11003 11003 11002 11001 11000 10998
10923 10922 10922 10921 10920 10919 10917 10917 10916 10915 10914 10912 10911 10910 10908 10907 10905 10904 10903 10902 10902 10902 10901 10901 10901 10901 10901 10902 10903 10904 10905 10906 10907 10909 10910 10912 10913 10914 10916 10918 10919 10920 10922 10924 10926 10927 10930 10932 10934 10937 10940 10944 10947 10949 10951 10954 10958 10963 10967 10971 10976 10980 10982 10986 10990 10992 10994 10994 10995 10995 10994 10996 10998 10998 10999 10999 11000 11001 11003 11003 11003 11003 11003 11004 11003 11002 11001 10999
10920 10919 10918 10917 10916 10915 10913 10912 10912 10910 10909 10908 10907 10905 10904 10902 10901 10899 10898 10897 10897 10897 10897 10896 10896 10896 10896 10897 10898 10899 10900 10901 10902 10904 10905 10906 10908 10910 10911 10913 10915 10916 10918 10920 10921 10923 10926 10928 10930 10933 10936 10940 10942 10945 10947 10950 10954 10958 10962 10967 10972 10975 10976 10982 10986 10988 10991 10991 10991 10992 10991 10993 10996 10996 10997 10997 10998 11000 11002 11002 11003 11003 11003 11004 11003 11002 11002 11000
10916 10915 10914 10913 10912 10911 10909 10908 10907 10906 10905 10903 10902 10900 10899 10897 10896 10894 10893 10892 10892 10892 10892 10891 10891 10891 10890 10891 10892 10893 10894 10896 10897 10898 10900 10901 10903 10905 10907 10908 10910 10912 10913 10915 10917 10919 10921 10923 10926 10928 10931 10934 10938 10941 10943 10946 10948 10951 10955 10961 10965 10968 10971 10977 10980 10983 10987 10986 10985 10987 10988 10990 10993 10994 10995 10995 10996 10998 11000 11002 11002 11002 11003 11003 11004 11003 11002 11001
10913 10911 10910 10909 10908 10907 10905 10904 10903 10902 10900 10899 10897 10896 10894 10893 10891 10890 10889 10888 10887 10887 10887 10886 10886 10886 10885 10886 10887 10888 10889 10890 10892 10893 10895 10896 10898 10900 10902 10903 10905 10907 10909 10910 10913 10915 10917 10919 10921 10923 10926 10930 10933 10937 10940 10941 10943 10946 10950 10956 10959 10963 10966 10971 10975 10978 10981 10980 10979 10982 10984 10987 10990 10990 10992 10992 10993 10996 10999 11000 11001 11002 11002 11002 11003 11003 11003 11002
10909 10908 10907 10906 10904 10903 10901 10900 10899 10897 10896 10894 10893 10891 10890 10888 10887 10885 10884 10883 10883 10882 10882 10881 10881 10880 10880 10880 10881 10882 10883 10885 10886 10888 10889 10891 10893 10895 10897 10898 10900 10902 10904 10906 10908 10910 10913 10915 10916 10919 10922 10925 10928 10932 10935 10936 10939 10942 10945 10950 10954 10958 10961 10965 10970 10973 10975 10975 10974 10976 10980 10984 10986 10987 10990 10990 10991 10994 10997 10999 10999 11000 11000 11001 11002 11003 11003 11002
10905 10904 10903 10902 10900 10899 10897 10896 10895 10893 10892 10890 10888 10887 10885 10883 10882 10881 10880 10879 10878 10878 10877 10877 10876 10875 10875 10875 10876 10877 10878 10879 10881 10882 10884 10886 10888 10890 10892 10894 10896 10897 10899 10901 10903 10905 10907 10910 10912 10914 10917 10919 10922 10927 10930 10933 10936 10938 10940 10945 10949 10953 10957 10960 10965 10968 10970 10971 10971 10972 10976 10980 10983 10985 10987 10988 10989 10992 10995 10997 10998 10999 11000 11000 11001 11003 11003 11003
10901 10900 10899 10898 10896 10895 10893 10892 10891 10889 10887 10885 10884 10882 10880 10879 10878 10877 10876 10875 10874 10874 10873 10872 10872 10871 10871 10871 10871 10872 10873 10874 10875 10877 10879 10881 10883 10885 10887 10889 10891 10892 10894 10896 10898 10900 10902 10905 10907 10909 10911 10913 10918 10922 10925 10928 10931 10933 10936 10940 10943 10948 10953 10957 10961 10965 10966 10967 10968 10970 10974 10978 10982 10985 10985 10985 10987 10990 10993 10995 10996 10998 10999 11000 11001 11002 11003 11003
10897 10896 10895 10893 10892 10891 10889 10888 10886 10885 10883 10881 10879 10878 10876 10875 10873 10872 10871 10871 10870 10869 10869 10868 10867 10867 10866 10866 10866 10867 10867 10869 10870 10872 10874 10876 10878 10880 10882 10884 10886 10887 10889 10891 10893 10895 10898 10900 10902 10905 10907 10910 10913 10916 10920 10923 10926 10929 10932 10934 10938 10944 10949 10953 10957 10960 10962 10963 10965 10968 10972 10978 10983 10984 10983 10983 10985 10988 10991 10993 10995 10996 10998 10999 11000 11001 11002 11003
10893 10891 10890 10889 10888 10886 10884 10883 10882 10880 10878 10877 10875 10873 10872 10871 10869 10868 10867 10867 10866 10865 10864 10864 10863 10862 10862 10862 10862 10862 10863 10863 10865 10867 10869 10871 10873 10875 10877 10879 10881 10883 10884 10886 10888 10891 10893 10895 10898 10900 10903 10906 10908 10911 10915 10919 10922 10925 10928 10930 10934 10939 10944 10949 10953 10955 10957 10959 10962 10966 10971 10976 10979 10980 10980 10981 10984 10987 10989 10991 10993 10995 10996 10997 10999 11000 11001 11002
10888 10887 10886 10884 10883 10881 10880 10878 10877 10875 10874 10872 10871 10869 10868 10867 10866 10865 10863 10862 10862 10861 10860 10860 10859 10858 10857 10857 10858 10858 10858 10859 10861 10862 10864 10866 10868 10870 10872 10874 10876 10878 10880 10882 10884 10886 10888 10891 10894 10896 10899 10901 10903 10907 10910 10913 10917 10920 10922 10925 10930 10936 10941 10944 10946 10949 10952 10955 10958 10962 10967 10971 10973 10975 10977 10979 10982 10984 10986 10989 10992 10993 10995 10996 10998 10999 10999 11001
10884 10882 10881 10879 10878 10876 10875 10873 10872 10871 10869 10868 10866 10865 10864 10862 10861 10861 10860 10858 10857 10857 10856 10856 10855 10854 10853 10853 10853 10854 10855 10855 10856 10858 10860 10861 10863 10865 10867 10869 10871 10873 10876 10878 10880 10882 10884 10887 10889 10891 10894 10895 10898 10901 10904 10908 10911 10913 10917 10922 10928 10933 10935 10937 10940 10944 10947 10950 10954 10958 10962 10966 10969 10973 10976 10978 10980 10983 10985 10987 10990 10991 10993 10995 10997 10997 10998 10999
10879 10878 10876 10875 10873 10872 10870 10869 10867 10866 10865 10863 10862 10861 10859 10858 10857 10856 10856 10855 10854 10853 10852 10852 10851 10850 10850 10849 10850 10850 10851 10851 10853 10854 10856 10857 10859 10861 10863 10865 10867 10869 10871 10873 10875 10877 10879 10882 10884 10886 10889 10890 10893 10895 10898 10902 10904 10908 10915 10920 10923 10925 10927 10931 10936 10939 10942 10946 10950 10953 10957 10961 10964 10968 10973 10976 10979 10982 10984 10986 10987 10989 10990 10993 10995 10995 10996 10997
10875 10873 10872 10870 10869 10868 10866 10864 10863 10862 10860 10859 10857 10856 10855 10854 10853 10852 10851 10850 10850 10849 10849 10848 10847 10847 10846 10846 10846 10847 10847 10848 10849 10851 10852 10854 10855 10857 10859 10861 10862 10864 10866 10868 10870 10872 10875 10877 10879 10881 10884 10886 10888 10890 10893 10896 10899 10906 10913 10913 10915 10919 10922 10926 10929 10932 10937 10941 10944 10948 10952 10956 10960 10965 10969 10971 10974 10978 10982 10983 10984 10985 10987 10990 10992 10993 10994 10995
10870 10869 10867 10866 10865 10863 10862 10860 10859 10858 10856 10855 10853 10852 10850 10849 10848 10848 10847 10846 10846 10846 10845 10845 10844 10843 10843 10843 10843 10844 10844 10845 10846 10847 10849 10850 10852 10853 10855 10857 10858 10860 10862 10864 10866 10868 10870 10872 10874 10877 10879 10881 10883 10885 10888 10891 10895 10902 10905 10906 10909 10913 10916 10919 10921 10926 10931 10934 10938 10943 10947 10951 10957 10962 10964 10965 10968 10972 10976 10978 10979 10981 10983 10986 10989 10991 10993 10994
10866 10865 10864 10862 10861 10859 10858 10856 10855 10854 10852 10851 10849 10848 10847 10845 10844 10844 10843 10842 10842 10842 10842 10842 10841 10840 10840 10840 10840 10841 10841 10842 10843 10844 10846 10847 10848 10850 10851 10853 10855 10857 10858 10860 10862 10864 10866 10868 10870 10872 10874 10876 10878 10881 10883 10886 10890 10895 10898 10901 10904 10907 10910 10912 10915 10920 10924 10928 10934 10938 10941 10946 10952 10957 10958 10961 10965 10968 10971 10973 10974 10976 10979 10983 10986 10988 10990 10991
10862 10861 10860 10858 10857 10856 10854 10853 10851 10850 10849 10848 10846 10845 10843 10842 10841 10840 10839 10839 10839 10839 10839 10839 10838 10837 10836 10837 10837 10838 10838 10839 10840 10842 10843 10844 10845 10847 10848 10850 10852 10853 10855 10857 10859 10860 10862 10864 10866 10868 10870 10871 10873 10876 10878 10881 10884 10888 10892 10896 10898 10900 10904 10907 10910 10914 10919 10923 10927 10931 10936 10942 10947 10952 10956 10960 10963 10966 10970 10972 10971 10972 10975 10979 10982 10984 10986 10988
10858 10857 10856 10855 10853 10852 10851 10849 10848 10847 10846 10844 10843 10842 10840 10839 10838 10837 10836 10836 10836 10837 10836 10836 10835 10834 10833 10833 10834 10835 10836 10837 10838 10839 10840 10841 10843 10844 10846 10847 10849 10850 10852 10853 10855 10857 10858 10860 10861 10863 10865 10866 10869 10871 10873 10876 10879 10882 10886 10889 10892 10895 10898 10902 10906 10909 10914 10918 10922 10927 10932 10936 10941 10946 10952 10958 10961 10964 10968 10968 10967 10967 10970 10974 10977 10980 10983 10986
10854 10853 10852 10851 10849 10848 10847 10846 10844 10843 10842 10841 10840 10839 10838 10836 10835 10834 10833 10833 10834 10834 10834 10833 10832 10831 10831 10831 10831 10832 10833 10834 10835 10836 10837 10839 10840 10842 10843 10844 10846 10847 10849 10850 10852 10853 10854 10856 10857 10859 10860 10862 10864 10866 10868 10871 10874 10876 10879 10883 10886 10888 10893 10897 10900 10903 10907 10911 10916 10922 10926 10931 10937 10941 10946 10951 10955 10960 10963 10964 10964 10964 10966 10969 10972 10975 10979 10982
10851 10849 10848 10847 10845 10844 10843 10842 10841 10839 10838 10837 10837 10836 10835 10833 10832 10831 10831 10830 10831 10831 10831 10831 10830 10829 10828 10828 10828 10829 10831 10831 10832 10833 10834 10836 10837 10839 10841 10842 10843 10845 10846 10848 10849 10850 10851 10852 10854 10855 10856 10857 10859 10861 10863 10866 10868 10871 10873 10877 10880 10882 10887 10890 10892 10896 10900 10904 10911 10916 10920 10926 10932 10936 10942 10946 10948 10952 10956 10959 10960 10961 10963 10966 10969 10971 10974 10978
10847 10845 10844 10843 10841 10840 10839 10838 10837 10836 10835 10834 10833 10832 10832 10831 10829 10828 10828 10828 10828 10829 10829 10828 10827 10827 10826 10826 10826 10827 10828 10829 10829 10831 10832 10833 10835 10836 10838 10839 10840 10842 10843 10845 10846 10847 10848 10849 10850 10851 10852 10853 10854 10856 10858 10860 10863 10865 10868 10871 10874 10877 10881 10883 10887 10891 10894 10900 10906 10910 10915 10921 10925 10930 10937 10941 10942 10944 10949 10953 10956 10957 10960 10964 10966 10967 10969 10973
10842 10841 10840 10839 10837 10836 10835 10834 10833 10832 10831 10830 10829 10829 10828 10827 10827 10826 10826 10826 10826 10826 10826 10826 10825 10825 10824 10824 10824 10824 10825 10826 10827 10828 10829 10831 10832 10834 10835 10837 10838 10839 10840 10841 10842 10844 10845 10846 10847 10848 10848 10849 10850 10851 10853 10855 10857 10860 10863 10866 10868 10871 10874 10877 10881 10885 10888 10893 10898 10902 10908 10914 10916 10923 10929 10933 10937 10940 10944 10949 10951 10952 10954 10957 10960 10963 10965 10968
10837 10837 10836 10834 10833 10832 10831 10830 10829 10828 10827 10826 10826 10825 10825 10824 10823 10823 10823 10823 10823 10823 10823 10823 10823 10823 10823 10822 10822 10822 10823 10824 10825 10826 10827 10828 10830 10831 10833 10834 10835 10836 10837 10838 10839 10840 10842 10842 10843 10844 10845 10846 10846 10847 10848 10850 10852 10855 10858 10860 10862 10864 10867 10870 10875 10878 10881 10886 10891 10896 10902 10906 10909 10916 10922 10925 10928 10932 10938 10943 10946 10948 10949 10951 10955 10959 10962 10965
10832 10832 10831 10830 10829 10828 10827 10826 10825 10824 10823 10822 10822 10822 10821 10820 10820 10820 10820 10820 10820 10820 10821 10821 10821 10821 10821 10821 10820 10820 10820 10821 10823 10824 10825 10826 10827 10829 10830 10832 10833 10833 10834 10835 10835 10836 10838 10839 10839 10840 10841 10842 10842 10843 10843 10845 10847 10850 10853 10854 10856 10858 10861 10864 10868 10872 10876 10881 10885 10890 10895 10899 10905 10911 10914 10916 10918 10923 10930 10935 10938 10941 10942 10943 10949 10955 10959 10962
10827 10826 10826 10824 10823 10823 10822 10822 10821 10820 10819 10818 10818 10818 10817 10816 10816 10817 10817 10817 10817 10817 10818 10818 10818 10818 10818 10819 10819 10818 10818 10819 10820 10821 10822 10824 10825 10826 10827 10829 10830 10831 10831 10831 10831 10832 10834 10835 10835 10836 10837 10838 10838 10839 10839 10840 10842 10844 10846 10848 10850 10853 10855 10858 10861 10865 10870 10874 10878 10883 10887 10892 10899 10903 10905 10907 10911 10917 10923 10927 10930 10933 10934 10933 10940 10949 10952 10954
10822 10822 10820 10819 10818 10818 10817 10817 10816 10816 10815 10814 10814 10814 10813 10812 10812 10813 10813 10814 10814 10814 10814 10815 10815 10815 10815 10816 10816 10816 10816 10817 10817 10818 10820 10821 10822 10823 10825 10826 10827 10827 10827 10828 10828 10828 10829 10831 10831 10831 10833 10834 10834 10834 10835 10836 10837 10839 10840 10843 10845 10847 10849 10852 10855 10859 10862 10866 10870 10874 10879 10885 10890 10893 10896 10900 10906 10911 10915 10919 10923 10926 10928 10929 10933 10942 10947 10949
10816 10817 10815 10813 10813 10812 10812 10812 10811 10811 10810 10810 10810 10809 10808 10808 10808 10809 10809 10810 10810 10810 10810 10811 10811 10811 10812 10812 10813 10813 10813 10814 10814 10815 10817 10818 10819 10821 10822 10822 10823 10823 10823 10824 10824 10824 10824 10826 10826 10827 10828 10829 10829 10830 10830 10831 10832 10834 10835 10837 10839 10840 10844 10847 10850 10853 10856 10858 10863 10867 10871 10878 10883 10886 10890 10895 10900 10905 10910 10914 10917 10921 10924 10926 10929 10936 10943 10946
10810 10810 10809 10807 10807 10807 10806 10806 10806 10806 10805 10805 10805 10804 10803 10803 10804 10804 10805 10805 10806 10806 10806 10807 10807 10807 10808 10808 10809 10809 10810 10810 10811 10812 10813 10814 10816 10817 10817 10818 10819 10819 10819 10820 10820 10819 10820 10821 10821 10823 10823 10824 10824 10825 10825 10825 10827 10828 10829 10831 10833 10834 10837 10841 10844 10848 10850 10852 10856 10859 10864 10872 10876 10878 10882 10887 10892 10899 10904 10907 10911 10917 10921 10923 10926 10932 10937 10940
10804 10804 10802 10801 10801 10800 10800 10800 10800 10799 10800 10800 10800 10799 10799 10798 10799 10799 10800 10801 10801 10801 10802 10802 10802 10803 10803 10804 10804 10805 10806 10806 10807 10808 10809 10810 10812 10813 10812 10813 10814 10814 10814 10815 10815 10814 10816 10816 10817 10818 10818 10819 10819 10820 10820 10820 10822 10823 10823 10825 10827 10828 10830 10833 10837 10841 10843 10846 10849 10852 10857 10863 10865 10868 10874 10879 10883 10890 10897 10901 10905 10911 10916 10920 10923 10928 10933 10935
10797 10797 10796 10794 10793 10793 10793 10793 10793 10793 10793 10795 10795 10794 10794 10793 10794 10795 10795 10796 10797 10797 10797 10797 10797 10798 10799 10799 10800 10800 10801 10802 10803 10803 10804 10806 10807 10807 10807 10808 10809 10809 10809 10810 10809 10809 10811 10812 10812 10813 10814 10814 10814 10815 10815 10816 10817 10817 10818 10820 10821 10822 10824 10826 10829 10833 10836 10840 10843 10844 10851 10856 10858 10862 10868 10873 10877 10883 10890 10895 10899 10904 10909 10914 10918 10924 10930 10933
10790 10790 10789 10787 10786 10785 10785 10785 10786 10786 10787 10789 10789 10789 10789 10789 10789 10790 10790 10790 10791 10792 10793 10793 10793 10794 10794 10795 10795 10796 10796 10797 10798 10799 10799 10801 10802 10802 10802 10803 10803 10804 10804 10804 10804 10805 10807 10807 10808 10809 10809 10809 10810 10810 10810 10812 10812 10812 10813 10814 10815 10816 10817 10819 10822 10825 10828 10833 10835 10838 10845 10851 10853 10858 10863 10866 10870 10875 10881 10886 10890 10895 10900 10905 10911 10918 10924 10928
10783 10782 10781 10779 10778 10777 10777 10777 10779 10779 10780 10782 10783 10783 10784 10783 10784 10784 10784 10785 10786 10787 10788 10788 10788 10789 10789 10790 10791 10791 10792 10792 10793 10794 10794 10796 10797 10797 10797 10798 10798 10798 10798 10798 10799 10800 10802 10803 10803 10804 10804 10804 10806 10806 10806 10807 10807 10807 10808 10808 10809 10810 10812 10813 10815 10817 10821 10825 10828 10833 10838 10843 10848 10854 10858 10858 10860 10864 10870 10875 10880 10884 10889 10896 10903 10909 10915 10917
10776 10774 10773 10771 10770 10768 10768 10769 10770 10771 10773 10775 10776 10777 10778 10778 10779 10779 10779 10780 10781 10781 10783 10784 10783 10784 10784 10785 10786 10786 10787 10787 10788 10790 10789 10790 10792 10792 10792 10792 10793 10793 10793 10794 10795 10796 10797 10798 10799 10799 10799 10800 10801 10801 10801 10802 10802 10802 10802 10803 10804 10805 10806 10807 10808 10810 10814 10817 10821 10826 10830 10834 10841 10844 10844 10843 10845 10851 10858 10864 10869 10873 10878 10887 10895 10900 10903 10904
10768 10766 10764 10763 10762 10760 10759 10760 10762 10763 10766 10768 10769 10771 10772 10772 10774 10774 10773 10774 10776 10776 10777 10779 10779 10779 10780 10781 10781 10781 10783 10783 10783 10785 10785 10786 10787 10788 10787 10788 10789 10789 10789 10789 10790 10791 10791 10793 10793 10793 10794 10795 10795 10795 10796 10796 10796 10797 10797 10798 10799 10800 10801 10802 10802 10804 10807 10810 10814 10818 10821 10825 10830 10831 10830 10830 10834 10840 10847 10853 10859 10865 10871 10880 10887 10890 10892 10895
10760 10758 10756 10755 10754 10751 10750 10751 10753 10755 10759 10761 10763 10765 10765 10765 10768 10768 10768 10769 10770 10770 10772 10773 10773 10774 10775 10776 10776 10777 10778 10778 10778 10780 10781 10781 10782 10783 10783 10783 10784 10784 10784 10784 10785 10786 10786 10787 10787 10787 10788 10789 10789 10790 10790 10791 10791 10791 10792 10793 10794 10795 10796 10797 10798 10799 10801 10803 10807 10810 10813 10817 10820 10820 10823 10826 10828 10833 10839 10845 10850 10856 10864 10872 10878 10880 10883 10887
10752 10750 10749 10747 10746 10744 10743 10743 10745 10748 10751 10754 10756 10758 10758 10759 10761 10762 10763 10764 10764 10765 10767 10767 10767 10769 10770 10771 10772 10772 10773 10774 10774 10775 10776 10776 10777 10778 10778 10779 10780 10780 10779 10780 10780 10780 10781 10782 10781 10781 10782 10783 10783 10784 10784 10785 10785 10785 10786 10787 10788 10790 10791 10793 10793 10794 10795 10797 10800 10802 10806 10809 10809 10809 10814 10819 10822 10826 10832 10837 10842 10847 10856 10864 10869 10873 10878 10883
10746 10744 10742 10740 10738 10737 10736 10737 10739 10741 10744 10747 10748 10750 10752 10753 10755 10756 10758 10757 10758 10760 10761 10761 10762 10764 10765 10766 10767 10767 10769 10770 10770 10770 10771 10771 10772 10773 10773 10775 10775 10775 10775 10775 10775 10776 10777 10777 10776 10776 10776 10777 10777 10778 10778 10779 10779 10779 10780 10781 10783 10785 10787 10788 10789 10789 10789 10791 10793 10794 10797 10799 10799 10800 10805 10810 10814 10819 10823 10828 10834 10839 10846 10853 10859 10865 10871 10874
10739 10737 10735 10734 10732 10730 10730 10731 10732 10734 10737 10739 10741 10744 10746 10747 10748 10751 10752 10751 10752 10755 10756 10756 10757 10758 10759 10761 10762 10763 10764 10765 10765 10766 10767 10767 10767 10768 10769 10770 10770 10770 10771 10771 10771 10771 10772 10772 10771 10771 10771 10771 10771 10771 10772 10772 10773 10773 10774 10776 10778 10780 10781 10782 10783 10783 10784 10785 10785 10785 10787 10788 10790 10793 10796 10800 10805 10811 10814 10819 10824 10830 10836 10843 10850 10855 10859 10862